Regional Weather Roundup
Issued by NWS Kansas City/Pleasant Hill, MO

Home | Current Version | Previous Version | Text Only | Print | Product List | Glossary On
Versions: 1 2 3 4 5 6 7 8 9 10 11 12 13 14 15 16 17 18 19 20 21 22 23 24 25 26 27
000
ASUS43 KEAX 040910
RWREAX

WEATHER ROUNDUP FOR EASTERN KANSAS AND NORTHWEST MISSOURI
NATIONAL WEATHER SERVICE KANSAS CITY/PLEASANT HILL MO
300 AM CST SUN DEC 04 2016

KSZ040-057-103>105-MOZ028-029-037-043-041000-
...KANSAS CITY METROPOLITAN AREA...

CITY           SKY/WX    TMP DP  RH WIND       PRES   REMARKS
K.C. INTL      LGT RAIN  40  37  89 SE6       30.04F FOG
K.C. DOWNTOWN  LGT RAIN  41  39  93 SE9       30.05F
LEES SUMMIT    LGT RAIN  39  37  92 SE12      30.05F WCI  32
OLATHE - IXD   LGT RAIN  39  38  96 SE12      30.04F WCI  32
OLATHE - OJC   LGT RAIN  38  37  97 S13       30.04F WCI  30
LAWRENCE       LGT RAIN  40  40 100 SE3       30.05F FOG

$$

MOZ001>008-011>017-020>025-030>033-038>040-044>046-053-054-041000-
...NORTHERN AND CENTRAL MISSOURI...

CITY           SKY/WX    TMP DP  RH WIND       PRES   REMARKS
ST. JOSEPH     LGT RAIN  40  39  97 SE6       30.06F FOG
MOSBY          RAIN      39  39 100 SE6       30.06F WCI  35
WARRENSBURG    LGT RAIN  37  36  93 E5        30.08F WCI  34
WHITEMAN AFB   LGT RAIN  39  39 100 SE5       30.07F FOG
CLINTON        LGT RAIN  39  37  93 SE5       30.09S
SEDALIA        LGT RAIN  39  37  92 E6        30.10S WCI  35
WARSAW         NOT AVBL
CHILLICOTHE      N/A     39  36  89 SE6       30.10F WCI  35
KIRKSVILLE     MIX PCPN  37  35  92 SE9       30.12F FOG     WCI  30

$$

MOZ041-047>049-056>058-063>065-088>090-097-041000-
...EASTERN AND SOUTHERN MISSOURI...

CITY           SKY/WX    TMP DP  RH WIND       PRES   REMARKS
ST. LOUIS INTL LGT RAIN  41  32  70 E10       30.15F WCI  35
SPIRIT OF STL  LGT RAIN  40  34  79 E3        30.15S
COLUMBIA       LGT RAIN  37  35  92 E7        30.10F WCI  32
JEFFERSON CITY CLOUDY    39  35  86 E5        30.11F
ROLLA          CLOUDY    36  35  96 E8        30.06F FOG     WCI  30
OSAGE BEACH    MIX PCPN  37  36  96 E5        30.09F WCI  33
SPRINGFIELD    CLOUDY    39  36  89 SE13      30.03S WCI  31
BRANSON        LGT RAIN  37  37 100 SE12      30.05R WCI  30
JOPLIN         LGT RAIN  40  40 100 E7        30.04F FOG
WEST PLAINS    CLOUDY    37  35  92 E9        30.06F WCI  30

$$

IAZ060-094-KSZ022-034>040-054-083-096-NEZ052-066-093-041000-
...KANSAS...SOUTHEAST NEBRASKA AND IOWA...

CITY           SKY/WX    TMP DP  RH WIND       PRES   REMARKS
TOPEKA         LGT RAIN  40  38  93 CALM      30.04F FOG
MANHATTAN      LGT RAIN  40  38  93 SW5       30.05S
EMPORIA        LGT RAIN  39  39 100 NW7       30.03S FOG     WCI  34
CHANUTE        LGT RAIN  40  39  97 SE8       30.03F FOG     WCI  34
WICHITA        LGT RAIN  41  41 100 N6        30.03S
OMAHA          CLOUDY    35  31  85 S7        30.03S WCI  29
LINCOLN        CLOUDY    33  32  96 W7        30.04R WCI  27
FALLS CITY     RAIN      40  40 100 SW6       30.04F
LAMONI         MIX PCPN  37  35  92 S13       30.05F WCI  29
DES MOINES     LGT SNOW  35  34  96 S8        30.06F FOG     WCI  29

$$





USA.gov is the U.S. government's official web portal to all federal, state and local government web resources and services.